Probability
0 0 0 0 0 0 0 0 0 0 0 0 0 0 1 0 0 0 0 0 1 0 0 0 1 1 0 0 0 0 0 0 0 0 0 0 0 0 0 0 0 0 0 0 0 0 0 0 0
0 0 0 0 0 0 0 0 0 0 0 0 0 0 1 0 0 0 0 1 2 1 1 3 5 4 2 1 1 0 0 0 0 0 0 0 0 0 0 0 0 0 0 0 0 0 0 0 0
0 0 0 0 0 0 0 0 0 0 0 1 2 2 1 1 0 0 1 2 4 3 3 7 13 12 6 3 2 1 0 0 0 0 0 0 0 0 0 0 0 0 0 0 0 0 0 0 0
0 0 0 0 0 0 0 0 0 0 0 3 6 6 3 2 2 2 3 5 7 7 8 14 21 20 13 8 6 4 2 0 0 0 0 0 0 0 0 0 0 0 0 0 0 0 0 0 0
0 0 0 0 0 0 0 0 0 0 2 7 10 10 6 4 5 6 6 7 10 12 14 20 25 24 19 14 9 6 3 1 0 0 0 0 0 0 0 0 0 0 0 0 0 0 0 0 0
0 0 0 0 0 0 0 0 0 2 6 11 15 14 10 8 9 10 9 9 14 19 21 24 26 24 21 17 12 7 4 1 0 0 0 0 0 0 0 0 0 0 0 0 0 0 0 0 0
0 0 0 0 0 0 0 0 1 4 8 13 16 15 11 10 13 15 13 13 19 26 29 29 28 26 21 17 12 8 4 2 1 0 0 0 0 0 0 0 0 0 0 0 0 0 0 0 0
0 0 0 0 0 0 0 0 1 3 7 12 14 12 11 12 17 20 18 18 25 33 35 35 33 29 23 16 12 7 4 2 1 0 0 0 0 0 0 0 0 0 0 0 0 0 0 0 0
0 0 0 0 0 0 0 0 1 3 7 11 12 12 15 21 26 27 26 25 30 35 36 36 35 30 24 18 14 10 6 3 1 0 0 0 0 0 0 0 0 0 0 0 0 0 0 0 0
0 0 0 0 0 0 0 0 1 5 9 12 15 20 29 37 37 34 32 32 35 37 36 35 35 31 26 21 17 14 11 7 3 1 0 0 0 0 0 0 0 0 0 0 0 1 0 0 0
0 0 0 0 0 0 0 0 2 5 9 14 22 35 45 47 43 37 33 34 38 39 38 36 34 32 27 22 19 18 15 12 7 2 0 0 0 0 0 0 0 0 0 0 0 0 0 0 0
0 0 0 0 0 0 1 2 4 5 9 17 31 46 54 51 44 35 31 33 38 41 40 37 32 27 24 21 19 17 16 14 8 2 0 0 0 0 0 0 0 0 0 0 0 0 0 0 0
0 0 0 0 0 1 2 3 5 6 11 21 36 49 53 51 45 36 29 32 39 41 39 34 28 24 22 21 20 18 16 12 6 2 0 0 0 0 0 0 0 0 0 0 0 0 0 0 0
0 0 0 0 0 1 2 2 4 7 13 24 36 44 46 46 43 36 31 34 37 36 33 29 26 22 21 22 22 18 14 9 3 1 0 0 0 0 0 0 0 0 0 0 0 0 0 0 0
0 0 0 0 0 0 0 1 2 7 16 27 34 37 38 38 37 34 31 32 31 27 25 24 22 20 19 19 19 16 12 7 2 0 0 0 0 0 0 0 0 0 0 0 0 0 0 0 0
0 0 0 0 0 0 0 0 1 7 19 29 30 29 30 29 28 27 27 25 23 20 19 19 19 18 16 14 14 12 9 6 3 1 0 0 0 0 0 0 0 0 0 0 0 0 0 0 0
0 0 0 0 0 0 0 0 0 5 16 23 24 24 25 24 21 22 21 19 17 18 17 18 19 19 16 12 10 9 8 6 3 1 0 0 0 0 0 0 0 0 0 0 0 0 0 0 0
0 0 0 0 0 0 0 0 0 3 8 13 16 19 21 20 18 18 17 15 15 17 18 18 20 22 20 12 7 6 7 5 2 1 0 0 0 0 0 0 0 0 0 0 0 0 0 0 0
0 0 0 0 0 0 0 0 1 1 3 7 11 14 17 17 15 15 15 14 14 16 18 18 20 22 19 12 7 5 6 5 2 0 0 0 0 0 0 0 0 0 0 0 0 0 0 0 0
0 0 0 0 0 0 0 0 1 2 2 4 7 8 11 13 14 14 14 13 13 15 16 16 16 16 14 10 8 6 6 5 2 0 1 1 1 1 0 0 0 0 0 0 0 0 0 0 0
0 0 0 0 0 0 0 0 1 2 2 2 3 3 5 9 11 11 10 10 11 13 14 14 13 12 10 9 9 9 7 5 2 0 1 2 3 2 1 0 0 0 0 0 0 0 0 0 0
0 0 0 0 0 0 0 0 1 2 3 2 1 0 1 3 5 5 5 6 8 11 12 12 12 11 10 10 11 11 9 6 3 1 1 2 3 3 2 1 0 0 0 0 0 0 0 0 0
0 0 0 0 0 0 0 0 0 1 2 2 1 1 1 1 1 2 3 4 6 8 9 11 11 10 9 10 11 11 9 7 4 2 1 1 2 2 2 1 0 0 0 0 0 0 0 0 0
0 0 0 0 0 0 0 0 0 0 0 0 0 1 1 1 1 1 3 4 5 7 8 9 10 9 9 10 10 9 8 6 5 2 1 2 1 1 1 0 0 0 0 0 0 0 0 0 0
0 0 0 0 0 0 0 0 0 0 0 0 0 0 1 1 1 1 3 4 6 7 7 8 8 9 9 10 9 8 6 5 4 3 3 2 1 0 0 0 0 0 0 0 0 0 0 0 0
0 0 0 0 0 0 0 0 0 0 0 0 0 0 0 0 0 0 1 3 4 6 8 9 9 8 8 9 9 8 5 4 4 3 3 2 1 0 0 0 0 0 0 0 0 0 0 0 0
0 0 0 0 0 0 0 0 0 0 0 0 0 0 0 0 0 0 0 1 2 4 7 9 10 9 8 7 8 7 6 4 4 3 1 1 0 0 0 0 0 0 0 0 0 0 0 0 0
0 0 0 0 0 0 0 0 0 0 0 0 0 0 0 0 0 0 0 0 1 2 5 9 11 10 8 7 7 7 7 7 5 3 1 0 0 0 0 0 0 0 0 0 0 0 0 0 0
0 0 0 0 0 0 0 0 0 0 0 0 0 0 0 0 0 0 0 0 0 1 4 8 10 9 8 7 7 7 8 7 5 2 1 0 0 0 0 0 0 0 0 0 0 0 0 0 0
0 0 0 0 0 0 0 0 0 0 0 0 0 0 0 0 0 0 0 0 0 1 4 7 9 8 7 7 7 8 7 5 4 2 0 0 0 0 0 0 0 0 0 0 0 0 0 0 0
Wind_Speed
4 3 1 1 3 3 1 3 2 1 1 1 3 3 3 4 4 3 3 12 16 15 12 15 17 18 17 17 17 17 17 16 16 16 15 15 15 14 14 13 13 13 13 13 13 13 13 13 13
3 3 1 2 3 2 3 2 2 3 2 2 3 2 2 1 3 6 7 11 17 15 12 13 18 18 18 17 17 16 16 16 15 15 15 14 14 13 13 13 13 13 13 13 13 13 13 13 12
3 2 2 3 2 2 3 2 3 1 2 2 2 1 1 2 5 6 7 14 14 13 11 14 20 19 18 17 16 16 16 15 15 14 14 13 13 13 12 12 12 12 12 12 12 12 12 12 11
2 2 3 3 2 4 4 3 3 3 1 1 2 2 1 2 4 6 13 15 14 11 10 13 20 19 18 17 16 16 15 15 14 14 13 13 13 12 12 12 12 12 12 12 12 12 11 11 10
3 3 4 2 4 5 4 3 5 5 3 2 2 2 1 4 6 13 16 15 15 11 9 12 19 19 18 17 16 16 15 14 14 13 13 12 12 12 12 11 11 11 11 11 11 11 10 9 8
4 4 3 2 4 4 3 3 6 4 3 3 3 3 1 2 9 13 13 12 12 12 10 11 19 19 18 17 16 16 15 14 13 13 12 12 11 11 10 11 10 10 10 10 10 9 9 8 7
4 3 2 3 3 4 2 3 5 4 3 3 4 4 1 4 7 10 10 10 10 10 9 8 10 14 17 17 16 16 15 14 13 13 12 11 11 10 10 9 9 9 9 9 9 8 8 7 6
4 4 1 2 3 4 1 2 2 3 3 3 4 6 6 7 8 9 9 8 9 8 8 8 8 8 8 10 15 16 15 14 13 13 12 11 11 10 9 7 8 8 8 8 7 7 7 6 5
4 4 2 4 4 3 1 2 1 2 4 2 2 3 4 13 13 11 9 7 9 10 7 7 7 7 7 7 12 13 14 13 12 10 12 10 4 4 5 6 7 7 7 7 6 5 5 5 4
4 3 7 5 4 3 2 3 5 4 3 2 1 3 10 15 14 14 14 14 13 13 10 7 7 7 7 7 6 4 5 6 5 4 5 4 3 3 4 5 7 6 6 5 5 4 4 4 2
5 6 5 5 5 4 3 3 4 7 5 7 7 10 14 15 13 13 13 13 14 13 12 10 8 7 7 4 4 3 3 3 4 4 4 4 3 2 2 1 2 2 3 2 2 2 2 2 1
4 7 6 5 2 2 3 3 4 5 6 5 8 13 15 15 15 14 13 12 11 12 12 11 10 8 6 4 4 4 3 3 3 4 5 4 2 2 2 1 1 1 1 2 2 1 2 2 2
4 6 5 5 4 3 2 3 3 3 2 5 10 12 13 13 12 9 8 9 9 10 10 10 10 9 7 5 4 5 4 4 4 3 4 4 3 3 2 2 2 2 2 2 2 1 2 2 2
4 4 5 4 3 1 3 1 2 3 4 8 10 10 10 11 11 9 9 9 10 10 9 8 9 8 7 5 5 4 4 3 3 3 4 5 4 3 3 3 2 2 2 2 2 2 2 2 1
3 3 6 2 1 0 4 1 3 4 8 9 9 9 8 7 8 9 10 10 10 10 8 8 8 8 7 7 6 5 4 4 3 3 4 5 4 4 4 3 3 2 2 3 2 3 2 2 1
3 3 3 5 1 0 3 5 4 5 8 8 8 8 7 6 7 7 8 8 9 9 8 9 10 9 7 6 5 4 4 4 4 3 3 4 5 5 4 3 3 3 3 3 3 2 2 2 1
5 2 4 6 2 1 3 6 3 5 8 7 7 7 7 6 6 6 7 8 9 10 10 10 9 9 7 6 5 4 4 4 4 3 3 4 5 5 4 3 3 4 3 2 3 2 2 1 1
2 2 4 6 4 1 3 5 3 4 7 7 6 6 6 7 7 7 7 7 7 7 8 9 8 7 7 6 4 3 3 3 3 3 4 5 4 6 5 4 4 4 3 3 2 3 2 2 1
2 3 7 8 5 2 4 4 4 4 5 6 6 6 7 7 6 6 6 6 6 6 7 8 8 7 7 5 5 5 4 3 3 3 4 5 5 6 5 4 4 4 3 3 3 3 3 2 1
3 4 6 7 3 0 1 3 3 4 5 6 7 8 7 6 4 6 6 7 7 8 8 7 7 7 7 6 4 3 4 3 3 3 4 5 6 6 6 6 5 4 4 4 3 3 2 2 1
4 5 6 5 3 3 2 5 3 2 2 2 4 5 6 7 7 7 7 7 8 8 9 8 8 9 8 7 4 4 3 3 2 3 3 4 6 6 6 7 5 5 4 4 3 3 4 2 1
6 6 6 4 0 3 1 4 7 3 3 4 5 5 6 6 7 6 6 7 8 9 9 9 9 9 8 8 8 8 6 5 5 4 4 4 5 6 6 6 6 5 4 4 4 3 3 4 2
7 0 1 1 3 1 2 1 8 1 5 7 7 8 7 7 8 7 7 7 7 7 8 9 9 9 8 8 9 8 6 4 3 4 5 4 3 5 6 6 6 5 4 4 4 4 3 2 3
3 5 5 5 5 1 2 1 8 5 6 5 6 8 8 8 7 6 6 5 5 6 6 7 8 8 8 8 8 8 8 7 7 6 6 4 3 3 5 6 5 5 4 5 4 4 4 3 3
4 5 4 5 4 5 2 2 11 8 6 6 7 7 7 8 7 7 7 6 6 7 7 7 8 8 8 8 8 9 9 9 9 8 7 6 4 3 5 6 5 5 5 5 5 4 4 4 4
5 9 8 5 5 5 2 6 10 5 4 4 4 5 6 7 7 8 8 8 7 8 8 8 8 8 8 8 8 8 8 6 6 7 7 7 5 5 6 6 6 6 6 6 5 4 4 3 4
6 4 6 7 2 1 5 8 11 3 2 2 3 4 6 7 8 8 8 8 8 8 8 8 9 8 8 8 8 7 8 7 7 7 6 5 5 5 7 7 7 6 6 6 6 4 4 4 4
5 8 6 6 5 3 5 5 6 6 4 2 3 5 6 6 7 8 8 8 7 7 7 8 8 8 7 8 7 7 7 7 6 6 7 7 6 6 7 7 7 6 6 6 5 4 4 4 3
4 4 5 4 5 6 4 8 7 7 5 5 6 6 6 7 7 7 7 7 6 6 7 7 7 7 7 7 7 7 7 6 6 6 7 7 6 7 8 8 7 7 7 6 6 5 6 5 4
5 7 8 6 5 5 4 10 5 4 4 4 4 4 5 6 6 6 6 6 6 7 7 7 7 7 7 7 6 6 6 6 6 6 6 6 6 7 7 7 7 8 8 7 7 7 7 7 6
Wind_Direction
186 156 146 77 59 49 310 265 238 263 245 230 143 147 153 157 175 198 133 144 139 145 152 154 150 144 139 135 132 130 129 127 127 127 128 128 128 127 127 125 124 121 118 116 115 115 114 114 114
137 151 115 59 75 46 292 252 225 224 172 111 89 81 94 115 86 113 133 148 144 147 149 153 152 147 143 139 137 135 133 131 130 130 130 130 130 130 129 126 125 122 119 118 118 118 118 117 117
146 162 92 71 90 190 248 233 206 159 141 124 106 71 119 149 133 146 151 146 142 146 147 157 153 150 147 144 141 139 137 135 134 134 133 133 132 131 130 127 125 123 122 122 121 120 118 118 118
124 63 58 69 249 234 228 218 177 151 139 88 130 118 68 59 144 148 141 146 143 144 148 160 155 153 151 148 146 144 142 141 139 137 137 137 135 133 132 130 127 125 124 122 121 120 120 119 120
71 80 58 7 267 258 242 204 166 165 179 153 132 130 41 10 112 135 144 149 147 146 152 160 157 156 154 153 151 149 148 146 144 143 142 141 139 138 138 134 130 128 128 124 122 121 120 120 118
65 70 74 290 275 270 259 189 156 164 166 140 134 123 53 103 130 143 147 148 150 151 152 158 160 159 158 157 156 154 153 151 150 149 148 147 146 143 141 138 135 133 131 129 126 123 118 114 109
113 106 172 244 278 287 263 146 155 163 168 174 147 127 142 154 148 143 141 139 144 151 152 156 160 161 162 161 161 159 158 157 156 154 153 152 150 147 146 142 140 137 135 132 130 127 120 112 108
138 110 224 249 249 274 267 112 129 153 171 134 140 160 187 177 146 134 131 137 146 152 156 156 154 153 156 162 165 165 163 162 161 160 159 158 157 155 154 149 149 145 142 139 135 129 122 113 105
117 82 237 230 217 251 161 109 125 126 125 156 191 187 172 144 142 139 140 148 159 162 158 154 153 151 150 157 171 168 166 167 166 166 165 160 146 144 150 161 161 154 151 147 140 129 119 107 93
121 169 232 222 209 220 227 193 174 141 155 202 151 109 131 146 155 162 167 170 173 172 168 161 161 157 154 166 162 154 158 159 156 153 151 133 131 148 156 176 174 168 163 155 144 133 106 88 72
174 209 243 249 231 221 217 202 163 148 200 213 190 158 151 159 168 175 178 178 178 173 172 169 166 161 159 156 148 143 137 140 145 149 141 136 134 140 141 137 166 157 152 113 102 81 75 87 97
203 245 240 261 245 217 202 174 155 179 221 205 170 158 160 170 179 183 182 180 176 173 178 171 167 164 161 154 153 149 148 149 154 157 152 145 146 152 150 144 131 110 104 106 83 80 86 89 98
230 263 264 255 270 239 172 170 167 209 223 131 139 153 168 177 183 182 179 171 170 176 178 174 169 169 166 157 160 163 159 159 161 158 163 162 162 166 162 151 136 132 122 122 115 104 97 94 89
248 261 284 287 282 226 151 171 134 220 147 136 146 162 173 177 175 171 169 169 175 180 180 177 176 172 166 165 164 162 157 154 159 165 175 171 166 165 159 153 144 140 139 136 132 126 109 93 94
299 312 323 308 319 143 113 342 221 188 152 153 162 167 169 174 168 174 174 174 179 181 178 179 179 173 172 172 170 162 157 155 164 171 172 168 164 162 157 151 147 146 136 126 107 95 82 88 87
9 24 329 296 296 162 148 254 247 168 158 165 170 169 166 170 170 174 175 172 174 172 174 182 187 177 177 174 164 154 159 159 165 163 161 164 160 155 149 144 146 138 126 119 113 97 85 70 70
26 4 297 303 270 165 184 246 247 172 165 174 179 175 172 172 173 175 174 175 174 174 175 181 182 173 171 161 158 155 152 159 157 154 157 161 156 153 145 144 140 134 122 119 123 93 98 87 58
269 295 291 286 282 254 235 244 238 188 180 184 184 180 180 184 192 184 175 176 174 172 172 174 171 168 158 148 145 142 143 151 147 154 157 155 154 150 139 134 133 132 124 114 103 103 80 78 68
212 254 277 276 281 251 248 244 230 187 189 189 185 188 195 200 190 178 171 170 167 165 166 170 169 165 155 151 159 160 166 160 155 159 152 153 153 150 142 137 132 136 135 136 130 113 96 64 56
225 272 281 294 330 70 295 275 234 195 208 203 193 194 196 194 177 177 173 174 176 173 171 170 171 171 172 167 161 161 151 149 148 147 146 155 156 154 152 143 145 144 131 129 134 130 117 76 55
251 228 252 267 326 34 12 312 265 234 226 211 199 193 189 190 187 184 182 184 182 180 178 178 180 182 176 162 144 128 105 98 121 145 157 165 163 158 150 151 148 149 144 149 152 146 139 134 71
263 239 229 248 268 300 27 284 285 253 244 225 213 200 193 192 188 186 185 185 189 189 182 181 179 179 173 165 165 164 167 170 175 163 159 156 161 157 153 154 153 152 149 152 160 149 142 139 140
226 281 91 101 133 356 353 220 285 286 252 238 220 210 201 194 190 187 186 190 188 184 179 179 176 178 173 172 173 172 170 161 140 138 145 148 152 156 158 157 153 153 157 160 153 144 145 143 149
170 75 54 50 69 314 263 193 278 244 227 234 216 206 199 192 189 185 177 173 178 174 175 174 175 178 174 171 170 173 167 157 152 160 161 156 153 155 161 157 157 160 162 165 160 154 151 147 142
124 95 27 355 5 255 256 226 252 250 228 218 218 210 197 187 182 177 173 177 181 177 178 175 169 172 174 172 173 174 171 168 170 169 170 163 164 172 176 166 165 167 172 167 157 155 159 160 156
173 146 161 200 227 271 292 244 256 257 247 229 210 197 184 184 182 184 183 182 184 180 176 172 171 172 175 176 178 177 172 175 178 175 171 176 182 180 173 171 172 174 172 168 161 159 170 167 167
143 170 163 136 155 262 277 282 298 269 252 229 185 174 188 189 186 187 184 184 183 181 180 176 174 174 177 179 174 176 173 177 180 177 173 176 176 172 171 173 173 175 173 168 162 168 175 168 175
142 143 109 126 152 242 283 275 261 277 271 236 208 198 201 193 187 184 182 183 184 180 174 173 175 177 175 175 176 180 178 179 178 172 178 180 178 171 168 175 176 176 177 174 170 171 175 170 178
117 113 115 121 153 165 245 267 232 233 231 218 218 209 197 193 190 186 182 180 176 165 165 174 176 175 174 177 177 173 173 173 173 179 187 185 179 175 177 180 179 182 184 181 180 185 180 183 188
170 169 150 155 204 180 189 263 270 226 228 208 210 203 191 187 181 174 172 167 166 167 169 174 179 182 180 173 164 167 166 167 175 187 191 184 183 183 184 181 183 190 190 187 189 194 191 192 196